[[{"header":{"parameterUnit":"m.s-1","parameterCategory":1,"la1":30.2991,"la2":30.254,"lo1":-89.0895,"lo2":-89.0444,"dy":0.0017,"dx":0.0017,"nx":28,"ny":28,"refTime":"2026-02-17T03:00:00:Z","depth":0,"parameterNumber":2,"parameterNumberName":"U-component_of_WINDS"},"data":[0,0,0,0,0,0,0,0,0,0,0,0,0,0,0,0,0,0,0,0,0,0,0,0,0,0,0,0,0,0,0,0,0,0,0,0,0,0,0,0,0,0,0,0,0,0,0,0,0,0,0,0,0,0,0,0,0,0,-0.3638,-0.3639,0,-0.3723,-0.3724,-0.3725,-0.3758,-0.3758,-0.3757,-0.3757,-0.3844,-0.3847,-0.3849,0,0,0,0,0,0,0,0,0,0,0,0,0,-0.3503,-0.3506,-0.3638,-0.3639,-0.364,-0.3723,-0.3724,-0.3726,-0.3758,-0.3758,-0.3757,-0.3757,-0.3843,-0.3846,-0.3849,0,0,0,0,0,0,0,0,0,0,0,0,0,-0.3572,-0.3506,-0.3638,-0.3666,-0.367,-0.3723,-0.3725,-0.3726,-0.3758,-0.3758,-0.3757,-0.3757,-0.3842,-0.3846,-0.385,-0.3881,0,0,-0.3862,-0.3863,0,0,0,0,0,0,0,0,-0.3568,-0.3577,-0.3661,-0.3665,-0.3669,-0.373,-0.3709,-0.3778,-0.3758,-0.3725,-0.3757,-0.3757,-0.3806,-0.3813,-0.383,-0.3885,-0.3889,-0.3862,-0.3864,-0.3866,-0.3867,0,0,0,0,0,0,0,-0.3564,-0.3574,-0.3672,-0.3662,-0.3667,-0.3675,-0.3684,-0.3722,-0.3767,-0.3727,-0.373,-0.374,-0.3808,-0.3826,-0.3832,-0.389,-0.3862,-0.3865,-0.3867,-0.3869,-0.3975,-0.3976,0,0,0,0,0,0,-0.3554,-0.357,-0.3669,-0.3675,-0.3617,-0.3678,-0.3688,-0.371,-0.3766,-0.3774,-0.374,-0.3741,-0.382,-0.3828,-0.3835,-0.3876,-0.3866,-0.3869,-0.3872,-0.3975,-0.3976,-0.3976,0,0,0,0,0,0,-0.3551,-0.3563,-0.3666,-0.3623,-0.3637,-0.368,-0.3705,-0.3712,-0.373,-0.3776,-0.3784,-0.375,-0.382,-0.383,-0.387,-0.388,-0.3871,-0.3875,-0.3974,-0.3975,-0.3976,-0.3958,0,0,0,0,0,0,-0.3547,-0.3561,-0.3574,-0.3623,-0.3639,-0.3699,-0.3706,-0.3714,-0.3737,-0.3739,-0.3787,-0.3795,-0.382,-0.3864,-0.3873,-0.3885,-0.3878,-0.3974,-0.3975,-0.3976,-0.3958,-0.3958,-0.3958,0,0,0,0,0,-0.3542,-0.3565,-0.3574,-0.3586,-0.3655,-0.3699,-0.3708,-0.3737,-0.3737,-0.375,-0.3779,-0.3793,-0.3877,-0.3867,-0.3879,-0.3891,-0.3973,-0.3974,-0.3975,-0.3958,-0.3958,-0.3958,0,0,0,0,0,0,-0.3516,-0.3572,-0.3583,-0.3623,-0.3656,-0.3705,-0.3722,-0.3736,-0.377,-0.3771,-0.3805,-0.3815,-0.3852,-0.3876,-0.3864,-0.3925,-0.3926,-0.3929,-0.3908,-0.3909,-0.3909,-0.3903,-0.3881,0,0,0,0,0,-0.3515,-0.3546,-0.3593,-0.3624,-0.364,-0.3678,-0.3698,-0.3717,-0.3753,-0.3767,-0.3799,-0.3834,-0.3868,-0.3889,-0.3923,-0.3961,-0.3972,-0.3975,-0.3975,-0.3975,-0.3978,-0.4,-0.4003,-0.398,-0.398,-0.398,0,0,-0.3514,-0.3548,-0.3565,-0.3619,-0.3648,-0.3679,-0.369,-0.3722,-0.3746,-0.3772,-0.3812,-0.3837,-0.3877,-0.3916,-0.3935,-0.3936,-0.3987,-0.3977,-0.3976,-0.3979,-0.4002,-0.4004,-0.4006,-0.3981,-0.3981,-0.3981,0,0,-0.3527,-0.3555,-0.3584,-0.3612,-0.3654,-0.3679,-0.3686,-0.3733,-0.375,-0.379,-0.3811,-0.3839,-0.3897,-0.3925,-0.3947,-0.397,-0.3984,-0.398,-0.3981,-0.4002,-0.4004,-0.4006,-0.4015,-0.4018,-0.3982,-0.3982,-0.3982,0,-0.3519,-0.3568,-0.3597,-0.3629,-0.3653,-0.3677,-0.3707,-0.3732,-0.3783,-0.3799,-0.38,-0.3873,-0.3902,-0.3948,-0.3954,-0.397,-0.398,-0.3975,-0.4002,-0.4004,-0.4006,-0.4015,-0.4018,-0.3981,-0.3981,-0.3982,-0.3982,0,-0.3557,-0.359,-0.3608,-0.3657,-0.3682,-0.3713,-0.3747,-0.3769,-0.3785,-0.381,-0.3851,-0.3886,-0.3928,-0.394,-0.3956,-0.3988,-0.3988,-0.3995,-0.3997,-0.4007,-0.4016,-0.402,-0.398,-0.3981,-0.3981,-0.3981,0,0,-0.3558,-0.3622,-0.3628,-0.3651,-0.3699,-0.3726,-0.3757,-0.3798,-0.3816,-0.385,-0.3878,-0.3926,-0.3932,-0.3957,-0.3976,-0.3995,-0.4012,-0.4,-0.4001,-0.4002,-0.4051,-0.4047,-0.405,-0.4021,-0.4022,-0.4023,-0.4048,0,-0.3579,-0.3636,-0.3663,-0.3709,-0.3741,-0.3764,-0.3792,-0.3824,-0.3848,-0.3878,-0.3904,-0.3938,-0.3943,-0.3958,-0.3977,-0.4006,-0.4023,-0.4004,-0.4048,-0.4049,-0.4039,-0.4055,-0.4051,-0.4073,-0.4051,-0.4052,-0.4053,0,-0.3611,-0.3645,-0.3694,-0.3739,-0.3753,-0.3777,-0.3817,-0.3845,-0.3882,-0.3898,-0.3925,-0.3944,-0.3978,-0.3976,-0.4024,-0.4011,-0.403,-0.4047,-0.4048,-0.4055,-0.4053,-0.4063,-0.4081,-0.4085,-0.4058,-0.4058,-0.4057,0,-0.3608,-0.3666,-0.3703,-0.3722,-0.3774,-0.3791,-0.3813,-0.385,-0.3873,-0.3907,-0.3922,-0.396,-0.3981,-0.4009,-0.4038,-0.4034,-0.4083,-0.4084,-0.4098,-0.4097,-0.4109,-0.4108,-0.4131,-0.4118,-0.4118,-0.4118,-0.4118,0,-0.3629,-0.3659,-0.3703,-0.3726,-0.3759,-0.379,-0.3822,-0.3846,-0.3879,-0.3907,-0.3929,-0.3955,-0.399,-0.402,-0.4043,-0.4079,-0.4088,-0.4102,-0.4108,-0.4102,-0.41,-0.4116,-0.4116,-0.4119,-0.4119,-0.4119,-0.4119,0,-0.3633,-0.3663,-0.3706,-0.3751,-0.3764,-0.3787,-0.3826,-0.3849,-0.3873,-0.3909,-0.3919,-0.3957,-0.3994,-0.4025,-0.4073,-0.4088,-0.4127,-0.4133,-0.4114,-0.4118,-0.4131,-0.413,-0.4166,-0.4173,-0.4154,-0.4154,-0.4154,0,-0.3645,-0.3669,-0.3717,-0.3737,-0.376,-0.3792,-0.3815,-0.3846,-0.3869,-0.3913,-0.3931,-0.3969,-0.4002,-0.406,-0.4092,-0.4129,-0.4137,-0.4147,-0.4143,-0.4135,-0.4139,-0.4138,-0.4141,-0.4148,-0.4148,-0.4148,-0.4148,0,-0.3665,-0.3678,-0.3711,-0.3749,-0.3776,-0.3808,-0.3839,-0.3855,-0.3891,-0.3916,-0.3954,-0.3979,-0.4029,-0.4067,-0.4107,-0.4131,-0.4146,-0.4149,-0.4154,-0.4149,-0.4138,-0.4145,-0.4117,-0.4148,-0.4148,-0.4148,-0.4148,-0.4148,-0.3674,-0.3696,-0.3734,-0.3769,-0.3796,-0.3826,-0.385,-0.3877,-0.3909,-0.3952,-0.3967,-0.4006,-0.4043,-0.4099,-0.4122,-0.4153,-0.4155,-0.4163,-0.4165,-0.4167,-0.4167,-0.4131,-0.4161,-0.4161,-0.4161,-0.4161,-0.4161,0,-0.3696,-0.3721,-0.3753,-0.3797,-0.3825,-0.3836,-0.3872,-0.3895,-0.3929,-0.3962,-0.3993,-0.4037,-0.4074,-0.4108,-0.4147,-0.4165,-0.4173,-0.4175,-0.4175,-0.418,-0.4162,-0.4154,-0.4168,-0.4168,-0.4168,-0.4168,-0.4168,-0.4168,-0.3711,-0.3749,-0.3767,-0.3818,-0.3843,-0.3882,-0.3901,-0.3928,-0.3955,-0.4003,-0.4033,-0.4055,-0.4089,-0.413,-0.4165,-0.4174,-0.4188,-0.4188,-0.4199,-0.4182,-0.4181,-0.418,-0.4173,-0.419,-0.419,-0.4214,-0.4215,-0.4215]},{"header":{"parameterUnit":"m.s-1","parameterCategory":1,"la1":30.2991,"la2":30.254,"lo1":-89.0895,"lo2":-89.0444,"dy":0.0017,"dx":0.0017,"nx":28,"ny":28,"refTime":"2026-02-17T03:00:00:Z","depth":0,"parameterNumber":3,"parameterNumberName":"V-component_of_WINDS"},"data":[0,0,0,0,0,0,0,0,0,0,0,0,0,0,0,0,0,0,0,0,0,0,0,0,0,0,0,0,0,0,0,0,0,0,0,0,0,0,0,0,0,0,0,0,0,0,0,0,0,0,0,0,0,0,0,0,0,0,1.0373,1.0374,0,1.0455,1.0456,1.0457,1.049,1.049,1.049,1.049,1.0576,1.0578,1.058,0,0,0,0,0,0,0,0,0,0,0,0,0,1.0247,1.0249,1.0373,1.0374,1.0375,1.0455,1.0456,1.0457,1.0491,1.049,1.049,1.049,1.0575,1.0578,1.0581,0,0,0,0,0,0,0,0,0,0,0,0,0,1.0313,1.025,1.0373,1.0401,1.0405,1.0455,1.0456,1.0458,1.0491,1.049,1.049,1.049,1.0574,1.0577,1.0581,1.061,0,0,1.0592,1.0594,0,0,0,0,0,0,0,0,1.0309,1.0317,1.0396,1.0399,1.0403,1.0462,1.0443,1.0509,1.0491,1.0458,1.049,1.049,1.0538,1.0545,1.0561,1.0614,1.0617,1.0593,1.0595,1.0597,1.0598,0,0,0,0,0,0,0,1.0305,1.0314,1.0406,1.0397,1.0402,1.0411,1.042,1.0456,1.0499,1.0461,1.0463,1.0473,1.054,1.0557,1.0563,1.0618,1.0593,1.0596,1.0598,1.06,1.0699,1.07,0,0,0,0,0,0,1.0295,1.031,1.0403,1.0408,1.0354,1.0413,1.0423,1.0444,1.0498,1.0506,1.0473,1.0474,1.0551,1.0559,1.0566,1.0604,1.0596,1.06,1.0602,1.0699,1.07,1.07,0,0,0,0,0,0,1.0292,1.0303,1.04,1.036,1.0373,1.0416,1.0438,1.0445,1.0462,1.0507,1.0515,1.0482,1.0551,1.0561,1.0599,1.0607,1.0602,1.0605,1.0698,1.0699,1.07,1.0678,0,0,0,0,0,0,1.0288,1.0302,1.0312,1.036,1.0375,1.043,1.0439,1.0447,1.0469,1.0471,1.0518,1.0526,1.0552,1.0593,1.0602,1.0612,1.0608,1.0698,1.0699,1.07,1.0678,1.0678,1.0677,0,0,0,0,0,1.0284,1.0303,1.0313,1.0324,1.0389,1.043,1.0439,1.0467,1.0469,1.0481,1.051,1.0525,1.0605,1.0596,1.0607,1.0618,1.0698,1.0699,1.07,1.0678,1.0678,1.0677,0,0,0,0,0,0,1.0256,1.031,1.0321,1.0356,1.0388,1.0436,1.0451,1.0466,1.0499,1.05,1.0534,1.0545,1.0579,1.0603,1.0593,1.0649,1.0652,1.0655,1.0632,1.0632,1.0632,1.0626,1.0611,0,0,0,0,0,1.0254,1.0282,1.0328,1.0355,1.037,1.0408,1.0427,1.0446,1.0481,1.0495,1.0527,1.056,1.0593,1.0614,1.0647,1.0682,1.0693,1.0695,1.0694,1.0694,1.0696,1.0717,1.0718,1.0703,1.0703,1.0703,0,0,1.025,1.0283,1.0299,1.035,1.0377,1.0406,1.0419,1.0449,1.0472,1.05,1.0537,1.0561,1.0602,1.0638,1.0655,1.0658,1.0703,1.0695,1.0694,1.0697,1.0718,1.072,1.0721,1.0704,1.0704,1.0704,0,0,1.0258,1.0285,1.0311,1.0338,1.0379,1.0403,1.041,1.0455,1.0472,1.051,1.0532,1.0559,1.0615,1.0643,1.0664,1.0683,1.0698,1.0693,1.0691,1.0711,1.0712,1.0714,1.0721,1.0723,1.0695,1.0695,1.0695,0,1.0248,1.0292,1.0322,1.0351,1.0373,1.04,1.0426,1.0451,1.0501,1.0516,1.0518,1.0589,1.0618,1.0662,1.0666,1.0683,1.0691,1.0688,1.071,1.0711,1.0713,1.072,1.0722,1.0694,1.0694,1.0694,1.0695,0,1.0278,1.0309,1.0325,1.0371,1.0395,1.0423,1.0458,1.0479,1.0496,1.0521,1.0559,1.0595,1.0636,1.0648,1.0665,1.0694,1.0694,1.0703,1.0707,1.0713,1.072,1.0723,1.0693,1.0693,1.0694,1.0694,0,0,1.0271,1.0334,1.0339,1.0361,1.0408,1.0432,1.0462,1.0501,1.0518,1.0552,1.0578,1.0624,1.0633,1.0657,1.0678,1.0695,1.0709,1.0702,1.0703,1.0702,1.0743,1.0736,1.0739,1.0719,1.072,1.072,1.074,0,1.0285,1.0337,1.0365,1.0407,1.0435,1.0461,1.0487,1.0519,1.0543,1.0572,1.0599,1.0632,1.064,1.0655,1.0673,1.0703,1.0717,1.0702,1.0744,1.0745,1.0733,1.0743,1.0736,1.0752,1.0743,1.0743,1.0744,0,1.0308,1.0341,1.0385,1.0429,1.0442,1.0464,1.0503,1.053,1.0567,1.0584,1.0611,1.0632,1.0665,1.0666,1.0712,1.0701,1.072,1.0737,1.0739,1.0744,1.0744,1.0748,1.0758,1.076,1.0748,1.0748,1.0748,0,1.0298,1.0353,1.0387,1.0405,1.0457,1.0472,1.0495,1.0532,1.0554,1.0588,1.0603,1.064,1.0661,1.069,1.072,1.0719,1.0764,1.0768,1.0779,1.0778,1.0787,1.0786,1.08,1.0799,1.0799,1.0799,1.0799,0,1.0311,1.0337,1.0383,1.0403,1.0433,1.0466,1.0495,1.052,1.0553,1.0579,1.0604,1.0629,1.0668,1.0697,1.0722,1.0756,1.0765,1.078,1.0786,1.0778,1.0776,1.0791,1.079,1.0799,1.0799,1.0799,1.0799,0,1.0305,1.0337,1.0375,1.0421,1.0434,1.0454,1.0494,1.0516,1.0541,1.0574,1.0584,1.0625,1.0661,1.0694,1.0743,1.0759,1.0794,1.0802,1.0781,1.0784,1.0794,1.0792,1.0818,1.0823,1.0818,1.0818,1.0818,0,1.0311,1.0331,1.038,1.0399,1.0421,1.0452,1.0474,1.0507,1.053,1.0574,1.059,1.0628,1.066,1.0717,1.0751,1.0789,1.0798,1.0804,1.0804,1.0795,1.0798,1.0796,1.0799,1.0804,1.0803,1.0803,1.0803,0,1.0319,1.0333,1.0364,1.0401,1.0427,1.0457,1.0489,1.0503,1.0543,1.0567,1.0604,1.0629,1.0678,1.0716,1.0757,1.0781,1.0799,1.0803,1.0808,1.0799,1.0786,1.0794,1.078,1.0802,1.0803,1.0803,1.0803,1.0803,1.0319,1.0338,1.0375,1.0409,1.0436,1.0465,1.0488,1.0516,1.0547,1.0589,1.0607,1.0645,1.0683,1.074,1.0764,1.0795,1.0799,1.0805,1.0807,1.0808,1.0806,1.0781,1.0803,1.0803,1.0803,1.0803,1.0803,0,1.0328,1.0353,1.0384,1.0427,1.0454,1.0467,1.0503,1.0525,1.0557,1.0591,1.0622,1.0665,1.0701,1.0739,1.0778,1.0795,1.0804,1.0804,1.0803,1.0808,1.0801,1.0793,1.0796,1.0796,1.0796,1.0796,1.0796,1.0796,1.0335,1.0369,1.0388,1.0436,1.0462,1.0498,1.0517,1.0544,1.0571,1.0618,1.0648,1.0672,1.0707,1.0749,1.0783,1.0794,1.0807,1.0804,1.0817,1.0809,1.0809,1.0809,1.0802,1.0807,1.0807,1.0822,1.0822,1.0823]}]]